{"data":{"norad_id":68848,"intl_designator":"2026-094K","name":"STARLINK-37373","alt_names":[],"object_type":"PAYLOAD","status":"ACTIVE","operator":null,"country":"US","launch_date":"2026-04-26","launch_site_code":"AFWTR","launch_vehicle":null,"mission":null,"orbit_class":"UNKNOWN","rcs_meters":null,"size_class":null,"mass_kg":null,"dimensions":null,"purposes":["comms"],"wikipedia_slug":null,"has_3d_model":false,"image_url":null,"decayed_at":null,"tle_current":{"epoch":"2026-09-19T07:21:28.123200Z","epoch_age_seconds":118638,"freshness":"FRESH","line1":"1 68848U 26094K   26262.30657550  .00014302  00000+0  44446-3 0  9998","line2":"2 68848  97.2859 275.4297 0001106  94.8732 265.2637 15.33447111 22479","mean_motion":15.33447111,"eccentricity":0.0001106,"inclination_deg":97.2859,"raan_deg":275.4297,"arg_perigee_deg":94.8732,"mean_anomaly_deg":265.2637,"bstar":0.00044446,"rev_number":2247,"period_min":93.906075382081,"perigee_km":464.77998330192,"apogee_km":466.29380396719,"semimajor_km":6843.6738936346,"source":"CELESTRAK","updated_at":"2026-09-20T09:00:44.016217Z"}}}